TimeAKST,TemperatureF,Dew PointF,Humidity,Sea Level PressureIn,VisibilityMPH,Wind Direction,Wind SpeedMPH,Gust SpeedMPH,PrecipitationIn,Events,Conditions,WindDirDegrees,DateUTC
12:20 AM,26.6,24.8,93,29.61,5.0,NNE,18.4,-,0.00,Snow,Light Snow,20,2012-11-14 09:20:00
12:41 AM,26.6,24.8,93,29.60,2.5,NNE,19.6,-,0.00,Snow,Light Snow,20,2012-11-14 09:41:00
12:48 AM,28.4,24.8,86,29.60,4.0,NNE,17.3,-,0.00,Snow,Light Snow,20,2012-11-14 09:48:00
12:53 AM,28.0,26.1,92,29.61,5.0,NNE,17.3,-,0.00,Snow,Light Snow,20,2012-11-14 09:53:00
1:03 AM,28.4,24.8,86,29.60,3.0,NNE,16.1,-,0.01,Snow,Light Snow,20,2012-11-14 10:03:00
1:10 AM,28.4,24.8,86,29.60,1.8,NNE,16.1,-,0.01,Snow,Light Snow,20,2012-11-14 10:10:00
1:19 AM,28.4,24.8,86,29.60,2.0,NNE,16.1,-,0.01,Snow,Light Snow,30,2012-11-14 10:19:00
1:53 AM,28.0,25.0,88,29.59,1.5,NNE,15.0,-,0.01,Snow,Light Snow,20,2012-11-14 10:53:00
2:10 AM,26.6,24.8,93,29.57,3.0,NNE,18.4,-,0.00,Snow,Light Snow,20,2012-11-14 11:10:00
2:41 AM,28.4,26.6,93,29.55,2.0,NNE,13.8,-,0.00,Snow,Light Snow,30,2012-11-14 11:41:00
2:53 AM,28.0,26.1,92,29.56,2.5,NNE,15.0,-,0.00,Snow,Light Snow,30,2012-11-14 11:53:00
3:02 AM,28.4,26.6,93,29.54,2.5,NNE,17.3,-,0.00,Snow,Light Snow,30,2012-11-14 12:02:00
3:05 AM,28.4,26.6,93,29.53,3.0,NNE,18.4,-,0.00,Snow,Light Snow,30,2012-11-14 12:05:00
3:15 AM,28.4,26.6,93,29.53,2.5,NNE,17.3,-,0.00,Snow,Light Snow,30,2012-11-14 12:15:00
3:29 AM,28.4,26.6,93,29.52,3.0,NNE,17.3,-,0.00,Snow,Light Snow,30,2012-11-14 12:29:00
3:42 AM,28.4,26.6,93,29.52,2.5,NNE,17.3,-,0.00,Snow,Light Snow,30,2012-11-14 12:42:00
3:53 AM,28.0,26.1,92,29.52,2.5,NNE,17.3,-,0.00,Snow,Light Snow,30,2012-11-14 12:53:00
4:06 AM,28.4,26.6,93,29.50,5.0,NNE,17.3,-,0.00,Snow,Light Snow,20,2012-11-14 13:06:00
4:23 AM,28.4,26.6,93,29.50,2.0,NNE,17.3,-,0.00,Snow,Light Snow,20,2012-11-14 13:23:00
4:35 AM,28.4,26.6,93,29.49,5.0,NNE,17.3,-,0.00,Snow,Light Snow,20,2012-11-14 13:35:00
4:53 AM,28.9,26.1,89,29.49,9.0,NNE,19.6,-,0.00,Snow,Light Snow,20,2012-11-14 13:53:00
5:53 AM,28.9,26.1,89,29.47,10.0,NNE,16.1,-,0.00,,Overcast,20,2012-11-14 14:53:00
6:53 AM,28.9,27.0,92,29.46,6.0,NNE,15.0,-,0.00,Snow,Light Snow,20,2012-11-14 15:53:00
7:53 AM,28.9,27.0,92,29.43,9.0,NNE,18.4,26.5,0.00,,Overcast,30,2012-11-14 16:53:00
8:14 AM,28.4,26.6,93,29.41,9.0,NNE,17.3,-,0.00,Snow,Light Snow,20,2012-11-14 17:14:00
8:53 AM,28.9,27.0,92,29.41,5.0,NNE,20.7,25.3,0.00,,Overcast,30,2012-11-14 17:53:00
9:53 AM,28.9,26.1,89,29.40,4.0,NNE,16.1,-,0.00,,Overcast,20,2012-11-14 18:53:00
10:53 AM,28.9,27.0,92,29.39,2.5,NNE,13.8,-,0.00,Snow,Light Snow,30,2012-11-14 19:53:00
11:25 AM,28.4,26.6,93,29.37,1.2,NNE,10.4,-,0.01,Snow,Light Snow,20,2012-11-14 20:25:00
11:53 AM,28.9,27.0,92,29.38,1.5,NNE,11.5,-,0.01,Snow,Light Snow,20,2012-11-14 20:53:00
12:53 PM,28.9,27.0,92,29.36,1.5,NNE,10.4,-,0.00,Snow,Light Snow,30,2012-11-14 21:53:00
1:53 PM,28.9,27.0,92,29.34,1.5,NE,11.5,-,0.00,Snow,Light Snow,40,2012-11-14 22:53:00
2:00 PM,28.4,26.6,93,29.34,2.5,NNE,10.4,-,0.00,Snow,Light Snow,30,2012-11-14 23:00:00
2:31 PM,28.4,26.6,93,29.32,2.5,NE,11.5,-,0.00,Snow,Light Snow,40,2012-11-14 23:31:00
2:53 PM,28.9,26.1,89,29.32,2.5,NE,11.5,-,0.00,Snow,Light Snow,40,2012-11-14 23:53:00
3:25 PM,28.4,26.6,93,29.31,4.0,NE,10.4,-,0.00,Snow,Light Snow,40,2012-11-15 00:25:00
3:53 PM,28.9,26.1,89,29.32,3.0,NE,9.2,-,0.00,Snow,Light Snow,40,2012-11-15 00:53:00
4:53 PM,28.0,27.0,96,29.31,1.8,NE,4.6,-,0.01,Snow,Light Snow,40,2012-11-15 01:53:00
5:53 PM,28.0,26.1,92,29.32,2.0,NE,3.5,-,0.01,Snow,Light Snow,50,2012-11-15 02:53:00
6:06 PM,28.4,26.6,93,29.31,7.0,Calm,Calm,-,0.00,,Overcast,0,2012-11-15 03:06:00
6:43 PM,28.4,26.6,93,29.32,3.0,Calm,Calm,-,0.00,Snow,Light Snow,0,2012-11-15 03:43:00
6:53 PM,28.0,27.0,96,29.32,3.0,Calm,Calm,-,0.00,Snow,Light Snow,0,2012-11-15 03:53:00
7:04 PM,28.4,26.6,93,29.32,5.0,Calm,Calm,-,0.00,,Overcast,0,2012-11-15 04:04:00
7:53 PM,28.0,26.1,92,29.33,4.0,North,3.5,-,0.00,Snow,Light Snow,10,2012-11-15 04:53:00
8:04 PM,28.4,26.6,93,29.33,1.8,Calm,Calm,-,0.00,Snow,Light Snow,0,2012-11-15 05:04:00
8:49 PM,28.4,26.6,93,29.33,2.5,NNE,3.5,-,0.01,Snow,Light Snow,20,2012-11-15 05:49:00
8:53 PM,27.0,26.1,96,29.34,2.5,NNE,3.5,-,0.02,Snow,Light Snow,20,2012-11-15 05:53:00
9:01 PM,26.6,26.6,100,29.33,3.0,NE,3.5,-,0.00,Snow,Light Snow,40,2012-11-15 06:01:00
9:23 PM,24.8,24.8,100,29.33,2.5,NNE,3.5,-,0.00,Snow,Light Snow,20,2012-11-15 06:23:00
9:28 PM,26.6,24.8,93,29.33,3.0,NNE,3.5,-,0.00,Snow,Light Snow,20,2012-11-15 06:28:00
9:53 PM,26.1,25.0,96,29.34,5.0,NE,3.5,-,0.00,Snow,Light Snow,50,2012-11-15 06:53:00
10:53 PM,28.0,26.1,92,29.35,10.0,NE,6.9,-,0.00,,Overcast,40,2012-11-15 07:53:00
11:53 PM,28.0,27.0,96,29.36,10.0,Calm,Calm,-,N/A,,Overcast,0,2012-11-15 08:53:00